Portage, MI

5:46 AM EDT on September 30, 2016 (GMT -0400)
Kalamazoo-Battle Creek International

Weather History for KAZO - January, 2009

Change the Weather History Date:

Sunday, January 25, 2009

  Actual Average Record
Temperature  
Mean Temperature 9 °F 24 °F  
Max Temperature 17 °F 31 °F 67 °F (1950)
Min Temperature 1 °F 18 °F -10 °F (1961)
Degree Days  
Heating Degree Days 56 41  
Month to date heating degree days 1017  
Since 1 July heating degree days 3468  
Cooling Degree Days 0 0  
Month to date cooling degree days 0  
Year to date cooling degree days 0  
Moisture  
Dew Point 2 °F    
Average Humidity 74    
Maximum Humidity 85    
Minimum Humidity 65    
Precipitation  
Precipitation 0.00 in 0.06 in 0.41 in (1985)
Month to date precipitation 1.44  
Year to date precipitation 1.44  
Snow  
Snow 0.00 in - - ()
Snow Depth 11.00 in    
Sea Level Pressure  
Sea Level Pressure 30.36 in    
Wind  
Wind Speed 7 mph (SW)    
Max Wind Speed 12 mph    
Max Gust Speed -    
Visibility 8 miles    
Events Snow    
T = Trace of Precipitation, MM = Missing Value Source: NWS Daily Summary

Daily Weather History Graph

Daily Weather History Graph

Search for Another Location

Airport or City:

Trip Planner

Search our weather history database for the weather conditions in past years. The results will help you decide how hot, cold, wet, or windy it might be!

Date:

Astronomy

Jan. 25, 2009 Rise Set
Actual Time 8:01 AM EST 5:47 PM EST
Civil Twilight 7:31 AM EST 6:18 PM EST
Nautical Twilight 6:57 AM EST 6:52 PM EST
Astronomical Twilight 6:24 AM EST 7:25 PM EST
Moon 7:45 AM EST (1/25) 5:16 PM EST (1/25)
Length of Visible Light 10h 46m
Length of Day
9h 46m
Waning Crescent, 0% of the Moon is Illuminated
Jan 25
Waning Crescent
Jan 26
New
Feb 2
First Quarter
Feb 9
Full
Feb 16
Last Quarter

Hourly Weather History & Observations

Time (EST) Temp. Windchill Dew Point Humidity Pressure Visibility Wind Dir Wind Speed Gust Speed Precip Events Conditions
12:53 AM 1.9 °F -10.6 °F -2.9 °F 80% 30.36 in 10.0 mi SSW 6.9 mph - N/A   Clear
1:53 AM 1.9 °F -9.2 °F -2.9 °F 80% 30.35 in 9.0 mi SW 5.8 mph - N/A   Clear
2:53 AM 1.9 °F -11.8 °F -2.9 °F 80% 30.36 in 8.0 mi SW 8.1 mph - N/A   Clear
3:53 AM 3.0 °F -9.3 °F -2.9 °F 76% 30.36 in 9.0 mi WSW 6.9 mph - N/A   Clear
4:53 AM 1.9 °F -10.6 °F -2.9 °F 80% 30.35 in 7.0 mi SW 6.9 mph - N/A   Partly Cloudy
5:03 AM 1.4 °F -11.3 °F -2.2 °F 85% 30.29 in 8.0 mi SW 6.9 mph - N/A   Partly Cloudy
5:53 AM 1.9 °F -9.2 °F -2.9 °F 80% 30.34 in 8.0 mi SW 5.8 mph - N/A   Clear
6:53 AM 3.0 °F -9.3 °F -2.0 °F 80% 30.33 in 8.0 mi SW 6.9 mph - N/A   Partly Cloudy
7:53 AM 5.0 °F -6.9 °F -0.0 °F 80% 30.35 in 8.0 mi SSW 6.9 mph - N/A   Scattered Clouds
8:53 AM 5.0 °F -6.9 °F -0.0 °F 80% 30.35 in 5.0 mi SSW 6.9 mph - N/A   Haze
10:53 AM 9.0 °F -3.2 °F 1.9 °F 73% 30.39 in 7.0 mi SW 8.1 mph - N/A   Clear
11:53 AM 10.9 °F -0.8 °F 3.9 °F 73% 30.38 in 6.0 mi SW 8.1 mph - N/A   Haze
12:33 PM 12.2 °F 0.7 °F 5.0 °F 73% 30.30 in 9.0 mi SW 8.1 mph - N/A   Mostly Cloudy
12:53 PM 14.0 °F 2.0 °F 6.1 °F 71% 30.35 in 10.0 mi SW 9.2 mph - N/A   Overcast
1:53 PM 16.0 °F 5.3 °F 6.1 °F 65% 30.34 in 10.0 mi WSW 8.1 mph - N/A   Overcast
2:53 PM 16.0 °F 4.4 °F 7.0 °F 68% 30.34 in 8.0 mi West 9.2 mph - N/A   Overcast
3:35 PM 15.8 °F 3.4 °F 8.6 °F 73% 30.28 in 6.0 mi WSW 10.4 mph - 0.00 in   Haze
3:53 PM 16.0 °F 3.6 °F 8.1 °F 71% 30.35 in 7.0 mi WSW 10.4 mph - 0.00 in   Overcast
4:01 PM 17.6 °F 7.3 °F 8.6 °F 68% 30.28 in 6.0 mi West 8.1 mph - 0.00 in Snow Light Snow
4:53 PM 16.0 °F 3.6 °F 7.0 °F 68% 30.37 in 4.0 mi WSW 10.4 mph - 0.00 in Snow Light Snow
5:53 PM 15.1 °F 1.8 °F 6.1 °F 68% 30.39 in 10.0 mi West 11.5 mph - 0.00 in   Overcast
6:51 PM 12.2 °F 1.7 °F 3.2 °F 67% 30.33 in 10.0 mi WSW 6.9 mph - N/A   Scattered Clouds
6:53 PM 12.0 °F 2.7 °F 3.9 °F 70% 30.40 in 10.0 mi WSW 5.8 mph - N/A   Scattered Clouds
7:53 PM 10.0 °F 1.8 °F 1.9 °F 70% 30.40 in 10.0 mi SW 4.6 mph - N/A   Scattered Clouds
8:53 PM 7.0 °F -3.3 °F -0.0 °F 73% 30.40 in 10.0 mi WSW 5.8 mph - N/A   Clear
9:53 PM 6.1 °F -5.6 °F -0.0 °F 76% 30.40 in 10.0 mi SW 6.9 mph - N/A   Clear
10:53 PM 6.1 °F -4.3 °F -0.9 °F 73% 30.40 in 10.0 mi WSW 5.8 mph - N/A   Clear
11:53 PM 5.0 °F -5.6 °F -2.0 °F 73% 30.40 in 9.0 mi SW 5.8 mph - N/A   Clear